GFSFLT1_sfc_rhum_009.txt.gz
RH
68 73 79 85 84 85 87 86 88 90 92 80 74 61 60 59 60 56 50 43 49 48 48 52 45 42 44 42 46 42 45 46
66 75 80 81 80 78 78 78 79 76 66 64 64 61 65 64 42 49 49 48 47 51 45 45 45 44 50 48 40 41 35 49
62 69 73 72 73 75 76 69 61 53 52 55 60 66 54 44 44 50 49 51 46 44 49 45 48 44 54 54 49 39 43 57
57 64 70 73 65 64 59 55 54 52 57 55 53 54 53 46 42 41 44 46 40 43 50 50 52 52 50 57 56 53 45 50
44 46 48 50 52 52 48 48 45 47 51 47 52 45 46 52 44 42 42 49 47 44 48 54 57 56 61 58 52 56 52 47
42 42 41 42 48 50 51 50 48 50 52 54 49 53 52 45 46 50 52 52 53 50 52 58 61 56 62 60 56 51 45 43
46 47 44 46 49 55 52 46 46 49 51 54 56 54 49 46 50 52 51 51 51 55 54 60 62 60 57 54 56 54 48 45
51 46 46 48 51 51 46 43 46 48 51 50 52 52 54 55 55 52 55 49 47 53 62 64 58 57 59 54 50 52 48 41
50 49 48 46 47 46 46 45 46 48 50 49 47 42 36 34 39 40 40 43 46 60 64 62 63 62 59 62 54 52 55 51
52 52 51 49 45 51 48 36 33 35 39 39 42 40 41 40 44 43 41 51 55 67 66 62 64 59 60 55 54 56 55 57
54 48 52 51 50 43 41 32 31 35 35 38 38 40 41 44 45 46 49 53 62 68 64 64 58 60 52 56 52 53 55 53
48 46 46 51 40 34 34 33 30 32 33 40 42 41 45 46 46 48 50 57 59 63 63 58 58 56 54 54 53 50 52 53
44 42 40 37 34 32 36 32 30 32 36 40 41 45 47 48 49 50 56 56 58 59 60 59 60 63 59 50 49 44 50 52
45 39 33 32 34 36 32 34 31 32 32 34 40 46 50 50 51 55 57 59 57 57 61 71 63 58 50 46 51 53 52 49
46 42 33 32 34 34 38 40 38 35 33 34 43 50 51 54 56 58 61 64 66 64 69 70 66 52 44 48 49 48 49 50
50 46 35 33 39 39 38 37 38 39 38 38 43 50 54 55 59 60 63 70 69 64 63 46 48 47 44 50 48 53 57 57
48 45 36 35 34 39 37 37 38 40 41 44 45 52 55 57 59 65 66 68 70 57 54 54 55 50 79 80 70 56 52 48
48 48 40 34 34 40 36 35 37 39 43 44 47 52 57 59 59 57 62 66 68 69 59 57 62 61 72 77 74 47 46 47
49 45 40 36 32 33 37 34 36 40 41 43 47 51 56 58 59 57 65 65 66 68 60 56 57 55 66 63 68 53 48 47

GFSFLT1_sfc_rhum_012.txt.gz
RH
46 48 47 45 44 51 63 74 77 74 77 73 62 47 42 40 38 35 36 34 38 36 36 40 33 30 30 32 37 32 33 35
49 56 57 58 60 61 68 73 70 61 53 49 44 43 43 40 34 39 38 36 35 37 30 33 35 34 40 40 35 35 32 35
52 55 57 58 60 61 61 60 58 49 43 38 38 43 39 34 35 38 35 35 31 31 39 35 37 34 39 44 43 37 29 33
54 56 58 57 56 55 47 43 41 40 43 41 42 42 39 35 32 30 35 37 33 34 39 40 41 38 34 44 44 47 41 35
43 44 45 42 44 43 40 40 39 39 36 36 41 34 34 37 34 34 32 42 42 38 38 43 43 40 42 43 38 46 42 37
35 33 34 34 40 40 39 36 36 38 39 40 37 40 36 34 36 42 41 40 40 38 39 42 44 42 45 50 48 43 40 41
29 30 32 34 38 42 42 38 37 38 39 42 45 44 41 38 39 36 30 27 25 26 26 42 46 47 51 46 47 48 46 40
34 34 32 36 42 42 38 36 37 39 40 39 40 39 34 28 27 24 26 22 23 27 33 38 43 49 48 49 50 53 42 38
33 33 35 38 40 38 38 36 35 34 32 28 27 26 22 21 25 27 26 27 28 35 41 43 48 52 52 57 51 44 43 40
36 37 37 38 39 42 36 29 25 26 27 30 31 28 31 31 33 33 29 32 28 37 48 51 54 57 56 51 44 42 40 39
39 38 40 37 37 34 33 25 25 26 28 28 27 29 31 33 34 35 35 36 36 40 46 51 58 64 58 44 40 35 36 35
40 38 38 37 33 30 28 26 28 30 24 28 31 32 32 33 34 35 36 40 37 39 43 48 58 55 44 45 47 34 34 36
37 36 38 37 32 27 28 28 27 24 25 29 30 31 32 34 36 35 40 41 42 42 43 47 51 48 45 49 44 32 34 37
36 35 35 32 29 28 28 31 31 24 21 22 26 29 33 36 37 39 39 41 44 45 44 46 47 47 46 40 35 35 37 40
36 33 31 28 26 28 30 40 30 24 21 22 26 33 34 37 39 40 41 42 46 45 45 48 51 45 40 35 35 40 42 42
37 35 31 27 26 30 40 30 29 28 26 24 28 34 35 37 41 40 43 47 45 45 46 44 42 39 33 44 42 46 46 44
37 36 31 28 26 36 29 30 29 28 28 29 30 34 36 41 40 44 44 42 43 44 47 51 50 36 82 77 59 40 39 38
38 36 33 28 27 29 31 27 28 29 29 29 31 36 39 39 37 38 39 42 45 45 48 52 54 54 74 67 63 40 40 38
38 35 33 29 26 27 28 25 26 28 29 32 32 33 35 35 37 40 42 43 44 43 43 48 50 48 62 61 61 44 40 38

GFSFLT1_sfc_rhum_015.txt.gz
RH
33 33 30 28 30 41 51 56 73 68 68 62 53 50 46 42 38 35 34 32 36 36 33 40 37 32 33 37 44 38 36 32
36 39 41 38 41 44 69 71 77 65 55 51 46 42 40 39 33 36 36 34 32 37 33 34 36 36 39 41 40 42 31 30
40 43 46 47 49 50 71 63 62 50 40 37 36 37 38 32 33 37 34 36 32 32 41 39 39 38 41 40 40 40 34 32
43 46 48 51 54 56 55 49 45 38 36 38 39 40 37 33 33 31 36 38 35 36 39 40 43 40 35 41 40 45 40 36
41 45 48 47 48 44 40 37 36 38 35 32 34 32 34 37 34 34 35 36 38 34 33 38 41 39 40 38 31 42 44 40
38 37 36 36 39 39 38 34 31 33 35 37 36 38 35 34 35 37 35 30 26 22 23 29 34 38 42 45 47 46 41 42
29 30 31 34 36 39 38 34 34 36 38 41 43 41 36 32 30 25 22 21 21 23 23 32 34 37 44 43 45 47 55 54
27 28 28 33 39 41 38 35 36 38 38 36 35 31 28 26 25 23 26 24 24 27 32 36 36 37 40 43 56 58 61 50
26 28 30 34 39 38 35 34 35 33 30 27 26 25 30 23 26 27 26 26 27 31 33 39 41 41 53 60 62 65 57 44
28 28 31 35 37 38 38 33 28 26 28 29 32 36 32 29 30 31 28 30 26 30 36 38 40 52 58 59 65 55 54 44
28 30 34 35 35 36 35 28 25 29 29 32 34 31 29 30 31 32 32 33 33 34 35 36 38 56 52 61 48 40 44 40
30 32 34 34 36 34 31 26 29 28 27 29 32 30 30 30 31 32 33 35 34 34 36 37 38 38 43 47 44 46 52 40
30 33 35 35 35 31 29 30 29 27 26 29 29 29 28 29 31 31 34 35 35 35 37 37 36 37 44 45 46 42 43 37
30 33 35 35 33 31 29 30 27 26 28 23 25 26 29 30 32 33 34 34 35 37 37 37 36 40 44 48 46 38 36 40
31 33 34 35 32 29 29 31 32 31 19 20 22 27 30 31 32 34 35 35 38 38 37 38 40 37 34 33 32 37 40 42
33 33 33 32 31 29 28 34 37 25 22 21 25 28 30 30 31 34 35 40 36 35 37 41 47 38 32 46 42 45 46 45
32 32 30 31 29 27 29 36 31 27 27 28 26 28 30 31 34 38 37 37 35 35 36 39 52 40 84 72 59 44 40 39
32 32 31 30 28 28 33 29 27 27 27 26 27 30 30 33 31 29 32 36 37 38 36 38 50 52 77 65 61 42 42 41
30 30 32 30 28 26 30 25 25 27 26 26 28 27 26 27 29 29 33 37 39 38 37 40 43 55 67 60 60 50 45 42

GFSFLT1_sfc_rhum_021.txt.gz
RH
39 40 48 52 63 72 67 82 87 93 94 95 95 87 82 82 76 66 57 56 55 68 69 70 68 68 70 66 67 64 70 65
41 46 48 64 70 66 81 86 91 90 94 96 92 82 79 71 62 57 58 58 58 64 66 67 67 69 70 69 67 65 66 70
49 54 60 68 78 88 89 85 87 82 79 80 78 75 72 65 64 62 58 60 56 59 64 66 66 66 68 68 68 70 73 70
55 59 70 84 94 94 90 85 80 81 81 69 67 64 66 66 67 64 60 57 53 53 56 58 63 70 72 71 71 71 73 69
56 65 88 94 95 94 88 83 86 84 71 59 52 60 66 73 72 69 56 44 41 40 50 56 59 65 62 75 64 75 76 78
60 71 83 84 82 79 89 83 71 63 62 68 63 63 67 64 58 47 41 46 43 44 50 52 58 69 69 71 77 80 84 86
64 69 68 70 71 66 55 55 62 61 61 66 63 61 49 47 46 48 45 49 54 51 46 57 63 66 72 82 79 80 88 86
66 71 72 70 63 54 56 60 64 59 54 48 48 50 46 43 44 51 48 48 53 51 53 58 62 68 77 78 81 88 87 87
60 59 64 67 61 59 59 60 61 59 52 48 46 43 51 49 49 48 52 52 54 54 54 57 58 63 75 79 86 89 85 90
54 56 58 62 63 62 62 60 57 48 47 49 48 48 51 51 49 49 54 54 40 53 56 56 59 60 71 79 87 82 89 89
48 50 56 57 59 61 63 58 47 49 52 54 50 50 52 50 52 52 49 53 49 54 55 58 58 58 62 80 82 82 77 78
43 47 51 55 56 61 63 55 47 50 49 52 54 52 53 50 51 52 49 52 50 50 53 55 57 60 63 65 67 66 70 75
41 45 52 56 56 57 63 49 46 47 51 53 52 54 48 49 49 48 55 52 52 51 52 55 59 59 59 60 66 66 71 64
40 48 51 54 55 57 57 47 47 45 45 50 53 49 48 47 46 49 54 53 54 51 50 57 61 53 55 59 63 66 65 69
40 47 49 50 52 55 51 54 47 43 43 44 46 49 48 47 48 48 51 55 53 51 54 58 63 56 54 54 60 66 66 64
44 47 50 49 53 55 54 56 50 46 46 44 45 52 48 48 50 50 52 54 51 53 57 61 61 60 52 62 58 63 62 64
39 49 50 49 55 56 52 52 54 50 56 51 44 49 49 54 53 52 54 56 55 57 58 57 60 54 77 69 64 61 57 62
38 49 52 51 56 50 54 51 54 58 58 44 49 56 53 52 45 47 45 47 53 55 57 59 62 74 79 72 65 58 60 73
37 42 48 53 57 55 54 51 56 53 44 48 52 52 47 46 45 46 53 56 56 58 58 59 74 72 81 74 67 60 69 74

GFSFLT1_sfc_rhum_024.txt.gz
RH
63 68 70 68 72 77 81 84 91 91 94 96 97 94 88 86 80 72 62 64 71 72 73 72 70 69 70 69 60 64 69 72
51 64 66 67 81 76 86 90 94 87 93 96 97 91 89 82 70 64 65 66 64 68 73 70 71 69 72 68 69 67 68 74
49 57 66 72 79 80 88 86 91 79 76 96 90 84 76 70 69 67 64 64 61 62 70 72 70 69 69 69 71 75 79 74
59 61 70 76 80 92 91 91 88 85 78 89 80 74 74 71 72 69 66 64 56 57 58 60 62 65 67 74 77 72 75 78
60 77 84 82 88 96 91 88 83 87 88 78 70 63 62 73 74 74 57 47 51 51 54 59 64 69 68 75 74 83 81 83
66 92 89 90 96 94 93 92 94 92 76 69 66 71 77 79 71 50 49 52 54 52 55 61 68 74 76 83 86 87 87 89
74 89 90 95 94 95 97 92 79 77 74 73 71 66 61 55 54 53 55 60 60 53 56 61 65 74 82 83 84 86 88 88
81 90 94 94 95 91 70 62 66 66 66 67 56 48 45 44 48 54 55 53 54 57 59 62 67 76 80 82 86 88 88 90
80 84 85 85 78 66 63 54 57 52 51 51 49 49 52 51 50 52 56 56 56 54 55 58 61 63 77 84 89 91 88 91
78 77 73 73 66 73 65 54 49 45 49 49 49 52 53 54 51 53 57 54 48 58 59 59 60 59 63 79 91 87 87 89
70 67 67 59 59 63 67 56 47 48 52 52 49 50 50 53 54 54 54 52 51 54 54 57 58 61 67 75 89 85 84 82
64 63 61 58 59 63 63 54 47 46 46 54 54 52 53 53 54 54 56 53 52 51 54 55 55 62 62 64 66 70 75 78
55 58 61 63 62 65 62 54 46 43 48 54 52 52 54 52 54 52 59 54 56 54 54 54 58 63 62 62 65 67 75 71
51 56 60 62 60 62 62 54 47 45 47 50 52 55 55 53 55 58 61 57 60 58 54 54 59 65 61 61 65 68 68 69
48 52 56 58 58 59 64 55 51 47 46 48 52 55 54 58 58 60 62 62 63 58 57 59 63 64 60 58 64 67 68 65
51 54 57 60 64 66 62 58 56 51 48 48 54 56 61 61 61 60 62 64 57 57 60 64 66 64 59 66 62 67 65 65
46 54 60 61 62 66 67 63 56 53 51 49 50 65 60 60 57 58 59 59 55 58 62 68 68 58 70 76 70 66 60 62
59 60 58 57 64 66 67 65 58 52 52 53 62 58 56 59 56 54 53 55 58 59 61 66 68 72 81 77 72 61 60 69
46 59 62 62 66 63 64 60 60 61 54 56 56 55 58 57 62 65 68 68 64 66 66 65 68 73 83 78 72 62 66 75

GFSFLT1_sfc_rhum_030.txt.gz
RH
79 74 82 89 95 95 94 96 96 95 97 97 96 94 95 90 84 79 80 74 74 77 78 78 74 72 70 67 68 76 78 75
77 76 88 95 96 96 95 96 97 93 96 96 97 96 96 87 78 73 79 75 72 76 80 78 76 73 73 70 73 74 79 77
78 85 92 94 94 94 96 95 96 87 81 95 93 95 93 84 77 77 75 74 74 74 78 77 74 73 73 77 75 81 84 82
80 84 92 92 93 95 94 94 94 86 84 94 91 90 81 79 79 79 76 75 73 69 67 67 67 69 72 80 80 76 79 83
71 81 92 92 92 93 92 92 92 89 92 87 86 85 83 86 80 81 66 63 62 60 65 71 74 75 77 82 79 84 82 82
65 69 80 87 92 94 94 94 94 90 92 90 92 94 94 92 82 63 63 65 62 62 68 69 75 81 77 75 82 85 87 87
61 66 80 91 95 96 98 97 95 94 92 95 95 92 92 82 80 67 75 68 68 62 64 70 72 76 77 80 87 85 87 88
79 82 83 90 96 96 97 94 96 97 96 96 92 84 78 72 59 65 62 65 71 67 67 64 73 77 78 83 88 86 89 89
79 85 84 90 94 96 94 95 95 98 96 95 86 77 77 63 57 56 53 56 57 57 60 63 60 72 82 83 86 91 92 92
72 89 90 94 94 95 94 97 95 96 95 88 79 79 69 65 74 60 59 58 55 59 59 64 63 61 65 76 85 89 93 92
88 93 94 94 93 93 97 95 92 86 88 79 73 76 75 72 61 65 68 65 53 61 64 61 63 63 66 72 80 89 93 93
94 95 95 96 96 96 94 85 77 76 75 73 75 76 73 70 66 65 56 56 61 64 61 62 60 62 67 72 83 87 82 79
93 94 94 96 94 92 89 79 68 69 71 77 79 72 72 66 58 52 56 56 61 58 62 61 61 62 68 72 71 64 73 78
90 92 92 90 90 90 89 79 73 79 74 75 73 67 58 54 52 54 60 61 62 62 62 62 62 65 70 73 72 72 74 76
88 91 90 84 80 88 87 85 75 76 69 67 65 60 57 57 56 60 63 63 64 63 63 64 66 65 66 70 70 75 77 78
81 84 88 86 88 89 89 84 83 78 72 67 62 66 65 64 70 68 70 67 63 62 64 64 67 71 64 73 75 78 79 81
72 73 76 81 88 90 91 83 77 74 75 70 74 76 78 77 68 70 71 69 64 61 64 70 78 68 73 78 82 83 80 78
70 77 72 72 82 87 88 85 80 78 74 74 83 84 80 78 67 63 64 67 70 76 80 85 83 74 79 82 85 88 82 76
64 69 74 84 89 88 83 78 78 78 82 83 82 73 66 68 67 70 79 83 90 91 92 80 74 68 78 81 85 90 81 76

GFSFLT1_sfc_rhum_033.txt.gz
RH
67 65 61 59 64 69 68 75 81 84 77 83 77 77 78 80 77 65 63 54 57 57 55 57 50 47 45 43 47 48 46 44
63 68 66 67 72 71 75 81 85 81 80 76 78 84 83 74 63 65 63 55 56 57 52 55 50 46 49 52 48 50 47 50
68 68 66 70 69 74 77 78 82 77 68 69 69 75 77 61 58 64 57 59 54 57 58 52 51 48 53 54 54 51 48 52
66 69 68 66 68 76 77 77 78 76 72 70 71 77 78 65 58 59 57 59 52 54 57 53 50 44 45 54 55 54 49 55
57 63 66 69 73 78 76 77 77 77 75 73 74 72 69 68 67 62 57 60 57 47 46 49 51 49 52 54 56 66 57 50
56 59 59 62 70 81 80 79 79 78 82 82 83 80 78 76 68 68 60 56 50 46 48 53 54 50 60 63 68 64 57 50
48 52 58 64 77 81 84 87 81 83 86 82 82 80 79 76 72 67 57 51 50 50 46 51 53 57 63 64 77 78 58 54
46 50 58 66 80 83 84 88 89 92 88 88 80 78 72 70 70 77 70 55 49 53 51 53 58 67 71 81 74 62 61 58
43 43 49 60 78 79 79 82 83 87 91 86 83 74 71 69 72 78 67 53 45 50 49 53 56 68 69 64 60 61 66 63
44 43 50 56 73 79 80 74 76 83 88 87 84 78 75 74 72 66 61 51 45 54 56 65 56 55 70 71 57 62 67 70
51 52 60 61 68 71 79 72 71 71 82 84 81 79 75 72 70 70 60 55 47 54 58 53 52 61 52 59 54 59 64 65
54 59 68 69 70 71 76 75 75 79 78 80 80 80 77 77 73 71 62 57 50 51 60 52 61 61 56 58 56 56 63 63
60 65 73 78 78 78 78 80 78 76 79 79 79 76 77 77 74 68 64 53 52 55 56 58 52 56 57 60 63 54 62 60
63 70 72 74 78 79 77 74 72 69 72 72 74 73 74 73 71 67 60 54 57 60 54 60 60 60 56 58 60 56 54 53
60 68 71 71 73 74 73 74 69 68 65 65 69 70 69 68 62 58 56 51 64 60 57 52 52 49 52 67 72 58 58 56
63 66 67 67 67 70 69 71 66 65 60 58 64 61 56 56 58 65 66 64 59 60 57 60 59 62 73 87 63 59 58 58
56 57 62 68 68 67 70 68 65 61 60 59 55 58 53 66 73 74 73 70 68 54 54 63 72 83 95 85 77 60 59 60
62 66 67 66 65 71 70 68 67 64 62 59 63 62 69 76 73 69 69 71 72 80 86 85 91 90 83 82 84 60 59 56
62 61 64 66 64 64 65 61 63 64 64 65 64 61 62 64 67 76 87 88 92 93 89 88 86 66 86 85 84 61 59 58

GFSFLT1_sfc_rhum_036.txt.gz
RH
46 48 43 43 44 50 51 56 61 68 59 58 46 56 61 61 60 55 55 46 49 49 46 50 41 37 38 34 36 31 28 27
38 41 46 47 49 53 53 57 62 69 57 49 48 57 59 59 57 57 57 49 49 50 44 47 40 38 39 41 35 33 32 34
41 45 43 46 47 52 55 54 60 61 50 46 47 55 58 53 51 56 55 52 46 46 47 43 41 40 45 42 36 34 33 35
41 45 48 47 46 50 50 50 53 58 53 46 49 57 66 60 53 52 50 51 44 43 47 44 46 40 39 39 39 42 38 39
33 42 45 48 48 49 48 48 50 54 57 50 56 54 63 68 62 49 51 55 49 42 44 48 45 37 37 37 38 44 44 42
32 33 39 41 44 48 52 50 51 53 59 61 63 62 60 62 57 55 59 60 54 45 48 49 47 37 39 44 49 48 43 44
30 31 34 38 44 50 56 56 53 57 69 82 83 73 68 71 60 58 59 56 58 54 49 50 42 38 45 52 55 53 48 39
31 33 33 37 43 53 56 57 70 70 80 90 85 77 76 78 68 65 68 73 72 66 52 45 40 42 53 50 55 54 48 41
29 29 31 34 42 50 56 60 74 88 92 84 81 77 74 70 63 71 73 73 67 59 48 42 40 62 53 57 48 66 52 45
24 26 28 34 39 51 57 59 62 72 83 80 80 80 74 65 62 71 69 67 55 49 47 46 56 50 55 48 52 49 45 52
25 26 29 31 34 43 55 54 53 61 64 75 71 74 71 68 65 67 67 66 53 49 49 49 57 59 50 52 60 43 49 49
30 32 33 36 38 43 50 52 50 52 51 64 75 72 70 72 72 72 72 67 55 56 49 50 53 49 48 53 41 43 47 45
31 36 42 45 46 45 48 50 49 48 52 59 66 71 77 76 78 74 73 67 60 51 47 48 57 44 40 44 47 39 49 54
33 41 45 48 51 52 52 56 54 53 55 60 69 79 79 79 79 76 72 68 62 52 44 46 52 48 45 44 49 64 73 57
30 40 46 48 52 56 57 60 60 60 59 60 66 71 73 75 74 74 73 71 59 50 63 60 60 42 45 52 77 87 70 52
37 40 44 47 53 55 55 61 60 60 58 57 61 64 62 62 62 60 58 58 55 60 65 64 65 60 57 84 85 85 81 63
42 45 47 51 52 51 56 57 58 54 53 52 51 54 52 55 56 60 67 67 63 67 69 62 62 71 99 96 91 85 76 55
45 46 46 47 50 50 52 53 52 52 52 50 51 50 51 55 57 60 64 68 70 77 76 69 72 65 92 92 94 77 72 57
44 45 47 46 46 48 49 47 50 51 51 52 51 51 52 51 54 62 74 80 85 86 78 67 64 75 92 93 95 81 58 51

GFSFLT1_sfc_rhum_039.txt.gz
RH
42 41 43 44 47 49 48 54 61 64 58 61 46 41 47 49 54 56 56 48 50 51 44 50 46 40 40 36 37 32 28 30
39 37 41 43 46 46 51 52 55 58 53 43 41 44 44 61 64 55 55 47 49 52 45 51 46 41 41 42 39 38 33 36
37 40 40 43 44 46 46 46 50 54 47 40 37 40 40 44 50 56 53 52 48 51 50 48 46 40 45 45 40 34 35 37
31 35 41 45 45 48 46 44 50 57 50 38 37 41 46 48 48 48 51 53 46 45 48 47 48 43 46 47 42 42 41 41
25 31 36 40 43 46 44 44 45 55 55 49 43 42 57 56 54 49 49 55 53 46 50 51 52 44 44 44 37 44 48 49
24 27 30 34 37 43 45 42 40 42 59 56 46 48 48 55 57 56 57 57 55 56 50 54 53 45 51 51 44 53 52 52
22 22 26 28 33 41 47 44 40 40 52 58 62 55 60 72 62 63 62 60 58 57 49 60 53 56 59 44 51 53 56 52
21 21 23 28 34 40 43 42 44 43 50 62 82 86 80 78 75 75 70 65 62 62 69 71 64 59 44 47 56 73 64 50
20 18 23 26 32 38 42 43 48 47 62 76 84 81 78 76 74 76 70 62 62 74 74 67 59 51 46 61 70 58 56 52
20 18 19 24 28 35 46 44 48 55 67 84 83 76 74 72 77 73 72 68 71 78 70 62 57 51 65 65 62 67 59 61
17 18 20 21 24 28 42 44 46 57 79 70 80 70 73 70 69 77 69 69 70 67 64 58 57 62 55 56 56 54 58 53
22 21 20 21 22 27 34 43 44 59 64 64 65 63 67 74 76 76 72 70 68 61 56 56 61 65 58 54 57 55 49 55
22 25 27 27 28 28 34 42 44 44 59 56 55 62 67 78 79 79 76 73 69 64 56 60 64 56 52 56 60 46 46 64
22 28 33 34 35 37 37 43 42 40 49 55 62 75 79 82 84 83 76 76 72 65 61 63 56 55 53 55 57 67 71 81
18 26 33 37 40 42 43 47 46 44 44 48 63 76 81 81 79 80 81 80 80 74 66 60 66 51 56 63 78 81 81 75
19 27 34 41 46 48 47 54 54 54 55 54 64 73 69 75 78 80 78 80 76 71 70 66 64 69 71 78 78 75 70 85
27 29 36 42 46 48 53 56 58 56 53 52 55 56 55 59 58 58 60 63 61 67 68 76 72 69 96 96 88 61 76 82
34 36 41 44 46 49 51 50 48 47 47 47 48 48 51 53 50 50 56 58 57 66 68 76 76 80 96 95 92 70 88 86
39 40 41 40 40 41 43 41 43 45 46 47 48 49 49 48 48 51 55 62 69 78 77 74 67 63 91 92 95 91 86 69

GFSFLT1_sfc_rhum_042.txt.gz
RH
63 54 53 53 58 60 66 70 70 72 75 75 60 61 58 60 62 79 71 66 66 74 77 72 67 68 66 63 58 52 53 54
54 52 55 56 57 54 56 65 72 70 68 68 69 69 65 68 77 71 76 70 68 74 74 75 72 69 66 66 62 55 54 57
46 54 56 59 58 59 62 56 60 65 66 61 62 61 60 60 74 77 74 74 64 69 76 83 73 68 69 67 65 65 62 64
44 48 54 56 58 59 57 59 62 66 60 54 52 57 57 57 62 81 74 74 66 67 73 72 75 74 74 70 69 65 67 69
42 44 50 52 56 56 53 52 51 56 60 61 54 50 54 64 70 66 70 72 72 68 67 74 73 74 72 72 62 64 68 73
35 41 44 46 50 56 55 51 50 56 63 67 68 58 65 74 73 73 72 76 76 79 69 74 76 78 72 72 62 65 68 72
26 33 38 43 47 52 59 56 51 55 64 67 71 74 69 81 82 84 80 83 77 74 67 80 82 80 75 72 69 72 74 74
28 28 33 37 45 52 54 54 54 52 65 70 71 73 78 77 82 86 93 87 87 86 83 84 88 79 76 66 73 78 78 75
26 25 30 33 42 48 50 51 51 52 62 68 70 74 77 82 82 88 87 85 85 86 81 80 75 72 74 69 80 80 76 71
25 24 26 32 38 46 52 48 48 51 55 70 78 78 76 79 82 84 86 83 85 89 84 82 79 77 70 78 79 81 71 73
23 23 26 27 35 39 50 47 51 47 57 71 80 80 83 82 82 89 86 85 78 87 84 79 75 73 75 77 77 72 68 69
24 25 26 27 27 32 46 47 47 53 59 80 81 80 80 83 85 88 86 83 81 78 80 74 68 73 72 75 72 68 66 68
24 28 29 30 31 33 48 49 55 60 71 75 77 82 77 81 84 88 84 80 77 73 72 69 64 72 75 76 73 54 72 80
23 29 34 35 36 38 42 49 50 67 71 75 78 73 81 86 91 91 84 82 82 78 72 71 71 76 73 68 67 82 86 93
19 29 35 39 42 44 45 55 56 64 69 75 76 89 92 94 93 93 92 91 88 81 76 74 76 68 66 71 85 91 90 90
19 26 37 42 50 51 50 62 72 65 70 76 88 90 89 87 90 91 90 91 89 86 81 74 70 71 77 85 87 88 87 86
18 23 37 45 52 52 60 67 68 64 69 77 80 80 81 88 89 93 87 83 74 72 72 76 80 77 92 88 86 86 82 80
29 30 42 48 52 59 62 63 63 62 60 60 64 66 68 70 66 67 71 73 75 79 80 78 85 80 92 94 90 83 83 88
36 43 50 52 54 56 58 53 54 56 55 54 56 59 58 57 58 62 70 73 79 83 84 81 82 73 92 95 94 94 93 88

GFSFLT1_sfc_rhum_045.txt.gz
RH
77 78 81 80 82 85 79 75 74 73 70 63 57 63 53 53 68 75 82 76 74 83 91 87 72 72 76 73 63 60 58 54
67 72 72 77 80 81 81 80 78 67 71 71 62 69 65 65 75 79 71 76 80 88 92 78 72 75 72 68 65 53 53 63
64 67 70 71 72 73 77 72 72 70 67 64 66 65 66 61 78 83 82 81 85 90 92 88 81 80 77 75 65 66 60 67
66 62 65 67 66 64 70 68 66 69 63 66 70 74 74 76 78 87 79 82 82 84 88 86 89 83 83 74 73 65 66 75
62 63 70 66 65 59 58 61 61 62 66 68 65 65 62 66 78 79 84 82 83 82 82 86 92 87 78 74 69 67 72 73
56 61 64 62 60 62 61 61 56 60 66 69 76 62 65 74 78 87 88 90 86 89 87 88 86 87 81 78 78 77 75 74
49 54 56 61 58 58 60 62 61 61 68 73 80 81 68 87 90 87 94 92 95 95 85 86 87 87 85 84 75 76 79 79
49 50 55 54 60 60 59 59 61 58 60 68 74 81 79 77 79 88 94 93 95 94 91 89 91 89 82 75 78 81 85 79
44 47 49 52 52 57 58 59 59 58 63 67 69 70 70 78 79 86 88 91 89 85 89 91 92 90 84 75 88 89 84 86
34 41 44 48 51 52 57 58 58 59 68 69 72 73 79 78 91 92 94 93 93 94 93 94 89 84 77 80 88 85 82 78
32 34 41 42 45 48 55 54 59 56 59 72 72 74 89 93 94 95 95 95 94 94 92 88 84 77 77 81 83 80 77 79
36 45 46 51 64 66 58 58 63 67 66 68 75 85 92 93 92 95 95 94 92 90 86 83 78 77 81 80 81 78 73 75
36 50 56 65 65 60 52 57 72 70 68 68 83 91 94 95 94 95 94 88 84 84 83 81 80 80 78 78 77 72 80 91
37 40 42 44 47 55 51 62 64 68 76 89 95 96 97 96 94 95 94 90 85 82 82 82 77 79 78 78 74 83 88 92
36 44 47 48 51 60 64 68 72 81 85 90 95 93 93 95 97 96 93 87 86 86 83 81 83 79 75 76 87 92 93 91
29 45 52 58 61 69 80 85 84 88 89 94 97 98 97 97 95 95 94 92 91 85 83 83 80 75 80 89 89 90 88 88
22 46 56 65 69 81 81 83 88 89 94 97 95 92 92 93 94 96 95 93 89 84 80 81 80 81 94 91 86 86 82 83
26 45 58 66 73 77 85 84 81 86 90 89 86 87 90 90 82 78 80 80 80 82 84 83 88 90 92 91 90 86 85 91
44 64 73 76 76 77 80 76 70 75 78 79 80 77 75 71 71 73 78 80 88 93 93 89 83 80 90 92 92 92 93 91

GFSFLT1_sfc_rhum_048.txt.gz
RH
84 84 83 81 81 83 88 92 93 88 77 75 72 75 68 62 55 64 66 76 77 89 93 91 79 75 76 74 70 69 63 60
83 87 87 93 89 81 83 85 81 75 70 71 69 70 67 62 61 77 78 83 83 90 95 93 81 75 75 76 70 58 62 65
82 86 90 90 91 90 85 82 79 68 62 58 60 63 63 58 57 73 79 82 82 88 93 93 84 86 80 78 68 68 59 70
78 81 84 87 88 90 84 80 73 71 66 63 66 70 64 61 56 71 84 83 75 87 93 92 89 81 83 92 74 64 64 74
71 77 82 82 81 79 77 75 72 71 70 66 66 68 68 62 59 65 79 84 87 87 89 90 90 93 91 82 70 72 71 70
72 70 73 73 71 73 75 71 68 66 69 68 70 77 75 76 81 84 86 93 92 92 92 94 93 92 94 86 83 80 81 78
71 63 64 68 65 64 69 72 67 65 68 73 81 82 74 85 84 84 85 87 92 93 91 93 92 93 94 89 85 84 82 81
71 67 68 68 70 62 62 64 66 63 63 67 76 83 78 82 76 79 86 91 97 95 92 95 93 90 92 91 87 87 86 85
56 63 65 69 67 66 60 64 68 64 65 70 73 73 77 79 73 80 86 86 89 92 92 89 93 92 91 86 87 87 84 86
54 54 60 62 65 64 61 59 64 63 64 67 71 72 75 74 78 87 86 89 95 97 94 92 92 93 90 84 82 84 84 86
52 50 55 58 61 59 62 59 57 58 62 64 64 68 70 77 87 89 88 93 94 96 94 92 93 94 84 79 85 86 85 87
39 49 51 54 57 58 63 65 67 68 68 64 65 70 74 86 87 89 90 94 95 95 94 93 92 87 84 82 84 85 81 79
36 39 44 52 55 54 56 61 64 66 66 66 70 80 94 96 97 98 99 96 96 95 95 92 86 84 85 84 85 80 79 90
48 52 48 48 51 53 54 56 59 65 68 68 76 92 95 93 93 96 94 96 95 94 92 87 85 86 84 85 82 82 85 89
46 51 50 50 52 58 58 61 65 65 70 76 80 91 93 91 91 92 93 95 95 94 93 88 89 88 85 82 83 90 92 90
36 51 49 56 63 70 58 62 62 71 77 78 87 91 91 94 97 97 96 95 94 92 91 92 90 86 83 86 87 90 89 93
28 44 56 62 75 86 87 87 74 80 81 83 90 96 96 98 98 97 96 96 94 90 92 88 86 82 96 92 86 88 86 87
27 43 56 68 82 86 92 95 95 91 90 93 97 97 97 97 96 95 96 96 91 88 89 88 91 91 94 92 91 85 85 89
31 56 69 86 91 91 93 94 96 97 96 94 93 94 94 91 91 90 90 92 94 93 91 90 90 89 94 92 91 90 92 92

GFSFLT1_sfc_rhum_054.txt.gz
RH
95 94 85 87 90 89 94 98 97 95 95 95 94 93 78 80 79 83 80 74 81 88 91 90 88 86 88 82 77 75 70 62
96 95 94 92 90 90 92 98 98 95 97 97 97 93 85 73 76 84 84 82 87 90 92 93 92 88 89 80 78 72 71 68
98 97 87 90 88 88 92 94 96 92 93 83 84 90 90 89 72 79 80 82 87 93 95 94 93 95 92 86 76 78 74 73
98 93 83 88 90 90 88 88 88 85 80 89 94 90 88 90 76 71 76 78 78 86 94 96 95 91 90 91 80 72 72 78
95 98 86 82 82 86 84 81 78 80 75 80 83 90 75 76 73 65 69 78 83 82 90 94 95 95 91 90 88 84 81 83
94 95 96 87 96 97 97 84 78 70 67 70 78 79 78 77 72 74 78 74 83 87 88 92 95 97 94 93 94 90 89 89
88 88 93 98 97 98 97 93 88 80 82 78 79 77 76 80 87 84 86 86 87 88 93 95 94 96 96 96 95 94 90 89
90 91 93 96 98 97 96 93 91 84 85 85 81 80 78 78 76 82 91 88 87 80 92 96 96 95 96 96 96 94 94 95
80 83 85 89 90 94 93 92 89 86 83 82 82 78 76 73 77 76 83 83 79 84 90 94 95 95 96 96 96 95 97 97
77 77 76 80 83 85 88 87 86 83 82 80 81 80 76 73 75 88 84 86 88 92 93 94 94 93 95 96 97 98 98 96
70 74 76 72 74 78 83 79 81 80 80 79 77 78 77 79 82 84 86 85 92 92 94 93 90 92 90 94 96 97 98 96
54 69 72 70 73 77 79 79 79 80 76 74 75 75 76 79 82 84 92 92 93 93 92 93 94 96 97 98 96 96 96 94
51 51 71 75 72 73 73 73 69 70 72 73 76 75 74 79 80 82 85 91 91 89 92 94 95 96 96 98 97 92 94 95
62 59 60 72 71 72 71 73 68 68 69 71 77 77 77 78 79 79 80 83 82 87 90 92 95 97 98 96 94 95 93 89
53 59 59 60 68 70 74 74 73 70 67 70 76 79 78 77 75 78 80 82 83 86 94 93 95 94 95 96 97 95 92 92
36 52 56 61 64 69 69 73 74 74 73 70 72 73 75 78 79 82 83 87 87 88 92 95 95 96 97 97 95 94 95 96
33 37 54 59 61 65 68 70 74 75 76 75 71 73 75 78 80 83 85 91 92 93 98 97 98 98 100 98 97 96 95 96
36 34 34 49 55 60 66 67 69 73 77 77 76 78 80 81 84 87 93 93 94 98 98 98 98 98 100 98 97 94 95 96
37 37 35 44 56 63 63 74 76 77 76 77 80 85 87 90 92 93 95 98 98 99 99 99 99 97 100 98 98 95 96 96

GFSFLT1_sfc_rhum_057.txt.gz
RH
67 72 77 78 80 84 94 96 92 88 91 94 96 92 79 75 79 68 69 60 61 69 69 67 58 58 58 54 56 53 45 40
69 75 76 80 81 81 89 97 95 95 95 96 96 96 90 78 65 69 73 62 64 70 73 71 63 62 67 64 58 60 54 50
77 77 78 82 80 80 83 96 96 93 91 90 90 88 94 82 70 69 68 66 61 70 72 77 73 70 76 72 65 64 53 52
84 81 79 79 81 83 83 90 91 90 89 94 95 94 93 90 80 73 68 74 71 68 72 80 84 82 75 84 74 66 60 57
78 83 82 77 77 76 79 80 88 88 88 87 92 82 84 74 80 71 72 76 77 75 82 88 92 91 83 84 75 73 68 64
70 82 77 70 71 72 76 79 84 82 82 78 84 82 85 75 78 78 67 68 75 74 79 79 88 89 83 81 80 79 76 70
62 69 74 69 69 74 79 78 76 76 79 77 81 84 83 86 86 83 80 79 82 85 81 86 80 81 81 81 80 78 76 73
65 72 77 81 85 84 80 76 77 72 73 71 76 75 79 83 78 76 76 78 75 77 78 82 76 75 74 76 81 82 82 81
61 65 70 75 83 82 82 76 74 74 72 70 70 69 69 66 68 63 66 66 61 62 73 73 73 71 72 76 79 82 83 86
56 62 66 69 72 76 77 72 71 74 73 69 70 69 68 67 66 68 65 65 67 69 67 68 67 68 70 69 76 80 87 88
56 60 66 65 67 67 76 70 67 68 72 72 69 69 66 66 67 70 70 67 67 68 68 65 63 65 66 72 76 80 90 93
50 56 60 62 64 68 72 71 70 70 71 71 71 71 70 71 70 70 69 70 68 69 66 66 66 69 73 77 79 82 92 91
43 49 58 62 63 64 66 67 67 68 71 72 74 74 72 74 74 72 73 73 71 69 69 70 70 72 79 81 85 88 94 96
43 45 54 59 60 62 62 66 64 65 65 70 76 77 76 76 76 74 74 74 76 75 74 75 77 79 85 93 90 93 94 94
30 45 45 49 58 60 60 64 65 64 62 66 71 74 73 73 71 72 73 71 75 72 74 74 76 76 82 89 95 96 94 94
31 34 40 44 53 60 58 60 63 63 62 62 66 69 68 67 70 72 72 73 75 72 75 78 78 78 81 86 92 94 96 97
28 30 37 45 49 54 58 61 66 66 65 63 59 62 65 69 68 70 72 73 74 74 77 79 87 89 100 100 98 97 97 95
30 30 30 38 44 54 56 59 62 69 68 66 64 64 65 68 67 67 70 74 75 77 82 85 88 89 100 100 100 97 97 94
34 33 32 31 32 42 51 52 59 67 66 66 67 69 68 66 67 69 72 76 80 84 88 90 96 98 100 100 100 97 97 96

GFSFLT1_sfc_rhum_060.txt.gz
RH
42 50 55 59 62 85 91 94 88 84 88 94 88 87 88 93 90 72 52 41 50 50 44 53 45 40 40 38 42 37 34 31
41 49 53 58 66 73 92 97 94 91 94 92 94 91 84 92 86 75 63 46 51 52 46 49 46 44 45 50 48 48 40 36
45 49 53 59 61 69 82 94 93 93 82 82 84 80 85 84 81 74 63 56 50 57 63 51 49 46 54 56 59 49 41 41
45 50 52 58 63 71 63 74 91 91 84 81 84 90 94 92 85 65 62 55 54 54 67 52 55 53 57 62 60 60 54 53
40 47 50 55 56 63 58 65 77 84 85 85 88 85 77 76 71 70 55 61 60 54 60 56 64 62 59 61 61 64 58 58
40 46 45 46 53 60 64 63 71 86 85 85 85 85 78 67 72 69 63 73 67 67 67 64 70 74 73 71 74 77 63 64
36 42 46 45 49 55 65 66 69 86 87 84 87 82 81 81 86 84 78 70 71 74 63 69 67 67 69 84 78 73 68 66
36 42 47 46 50 55 58 68 70 74 86 83 80 71 70 85 86 76 70 67 68 68 69 71 65 65 70 68 70 67 71 68
35 38 46 46 50 52 54 60 67 75 79 78 76 69 63 72 75 71 70 65 58 69 74 60 52 61 61 57 58 58 61 65
32 36 44 47 50 54 56 53 54 64 70 72 73 69 65 61 60 68 66 63 62 70 72 71 61 56 60 57 58 60 63 66
32 34 42 44 48 48 56 50 48 52 59 63 62 63 58 56 57 59 57 54 55 56 58 61 59 56 56 57 59 58 61 61
31 32 37 41 44 47 51 50 48 50 54 56 58 57 57 57 56 55 56 57 54 54 54 54 52 51 52 53 54 52 53 57
26 32 37 41 44 46 47 49 46 47 51 55 59 60 57 59 60 58 61 59 58 56 55 55 54 52 53 54 56 52 56 59
25 29 34 39 41 44 45 49 46 45 46 52 60 63 62 61 62 61 59 60 59 57 55 58 58 58 56 56 56 60 64 71
19 25 29 34 38 41 44 47 48 47 45 50 54 60 62 61 60 61 62 58 59 56 57 57 61 56 55 54 58 71 78 86
19 20 21 26 33 38 40 43 46 48 48 48 52 57 58 57 58 58 58 61 59 58 60 60 62 64 58 62 67 75 84 84
18 17 18 20 24 31 38 41 45 48 50 50 48 51 54 57 55 58 59 59 58 58 59 60 63 59 78 89 84 72 80 84
26 21 21 21 23 26 32 37 41 47 50 49 48 49 52 54 54 54 56 60 61 60 59 59 63 65 92 100 100 79 86 89
36 34 31 23 22 23 29 28 36 44 47 47 48 49 51 51 54 56 58 60 63 64 65 64 74 74 97 100 100 96 94 97

GFSFLT1_sfc_rhum_066.txt.gz
RH
34 36 41 48 57 80 86 85 86 87 89 94 95 98 98 94 93 93 83 72 69 74 74 82 72 74 67 64 63 63 62 59
32 38 45 50 64 68 85 89 90 92 92 94 97 98 98 96 90 84 79 67 66 68 71 70 63 62 64 64 66 60 61 59
33 39 45 53 67 80 88 92 90 88 86 83 84 90 93 90 91 81 77 70 63 66 70 73 69 67 70 68 62 62 59 57
35 40 46 55 62 73 81 90 89 86 87 91 91 93 93 93 93 92 70 67 62 61 70 68 72 76 79 74 73 67 69 64
33 39 44 52 56 77 78 87 89 83 86 86 90 90 90 78 83 84 73 72 62 54 62 68 67 75 81 81 74 76 76 66
31 38 40 43 52 66 76 82 88 83 84 81 83 82 81 75 77 83 84 83 74 81 65 83 84 73 84 84 82 76 80 87
24 34 38 40 50 63 67 79 84 83 85 80 81 76 78 78 78 84 84 75 73 80 71 82 86 88 84 86 81 89 89 83
24 32 37 40 52 64 65 72 78 81 87 83 80 76 76 77 74 77 77 74 69 67 84 88 80 81 84 81 83 88 83 87
23 29 37 39 49 57 59 61 69 78 85 85 79 74 72 71 75 69 73 72 66 62 76 82 84 75 78 85 84 85 88 88
24 26 36 40 45 55 60 58 62 72 81 84 82 79 74 73 74 74 72 68 66 70 80 83 85 84 76 68 74 76 76 78
23 26 37 38 41 46 58 54 55 70 76 81 81 81 77 75 72 73 73 72 68 64 73 78 77 79 75 73 75 71 71 72
22 25 32 38 41 42 52 51 53 59 74 78 79 82 79 77 76 72 71 73 71 67 66 71 74 75 72 70 71 66 70 69
22 27 32 38 40 40 46 49 48 53 61 73 78 77 79 81 79 74 73 74 71 68 65 66 68 71 70 72 73 64 66 66
23 28 29 35 39 42 41 47 46 46 52 61 72 78 77 78 78 76 73 73 73 70 64 66 67 71 70 68 68 66 63 61
25 27 30 32 36 40 42 47 49 47 44 53 64 71 75 74 72 75 74 70 71 69 67 65 65 65 63 63 63 65 65 63
31 31 31 29 36 40 37 42 46 48 47 45 52 63 67 69 72 72 72 70 67 66 67 66 64 62 59 63 60 63 66 66
35 36 36 36 34 35 33 39 44 47 50 50 47 52 58 63 64 68 69 70 67 67 67 67 68 58 71 79 72 64 65 68
44 47 48 50 54 53 52 41 33 44 46 49 49 50 52 59 62 63 65 68 69 69 68 68 68 69 82 83 85 68 69 72
45 48 56 60 63 65 65 57 51 42 37 44 47 51 51 52 58 61 65 68 71 72 71 70 72 68 88 91 89 82 75 73

GFSFLT1_sfc_rhum_072.txt.gz
RH
59 77 80 93 94 94 91 93 94 98 98 99 98 99 99 99 98 96 95 84 72 76 74 84 80 66 73 75 82 79 73 76
61 75 81 93 94 94 93 96 96 97 98 97 99 98 99 99 97 94 94 90 78 71 68 86 74 80 76 70 76 67 73 76
61 78 83 93 95 93 95 95 96 96 89 90 91 94 98 94 96 96 93 88 81 72 67 82 77 80 89 81 76 74 71 70
58 73 82 96 96 96 95 96 94 94 94 95 98 97 99 99 98 98 98 94 83 82 74 77 83 80 85 84 76 67 74 76
52 63 82 96 96 96 96 96 94 91 93 90 95 90 95 90 92 93 94 94 89 83 84 80 83 85 89 89 81 69 71 65
53 57 75 86 93 95 96 95 95 94 91 89 92 92 87 92 91 91 91 94 90 86 86 83 87 90 92 88 88 80 79 83
49 54 71 89 97 91 96 96 95 94 90 90 88 90 88 91 92 93 91 86 89 82 84 85 88 87 91 90 89 85 83 79
53 62 73 95 98 92 89 94 95 96 93 91 86 82 82 86 88 86 86 89 85 74 80 89 86 84 87 81 84 87 89 89
55 61 64 90 95 91 86 86 84 90 90 90 85 81 80 85 91 87 82 81 78 74 79 81 86 80 78 89 87 89 94 95
55 57 60 84 94 95 93 88 85 87 90 88 87 85 87 87 84 89 86 78 74 80 80 83 83 83 82 87 93 90 91 90
54 53 58 72 84 90 94 94 90 88 85 86 85 83 79 82 84 82 86 84 81 76 79 82 87 84 80 82 83 86 87 88
55 53 55 65 75 82 94 93 94 88 79 82 81 82 78 80 82 82 78 79 80 75 75 74 80 83 82 80 77 79 85 82
55 59 62 72 77 76 83 88 91 92 89 88 87 82 79 78 80 79 78 74 73 76 73 74 73 76 77 81 81 75 81 80
73 77 74 73 73 75 77 82 84 89 90 91 88 86 84 82 80 77 77 77 73 71 71 74 75 76 78 78 80 78 77 78
74 79 84 84 84 82 80 78 74 81 85 90 89 86 85 84 82 79 78 77 78 77 75 73 74 73 72 74 78 81 78 75
72 79 82 81 83 81 79 77 76 79 82 87 90 88 85 85 85 82 82 83 76 76 77 78 76 74 70 73 73 78 80 80
68 72 75 76 74 78 77 76 78 76 79 83 83 87 87 87 87 86 85 83 82 81 79 79 82 76 85 88 81 75 76 79
72 75 76 75 74 74 78 76 75 77 79 78 80 81 83 84 85 86 87 87 86 86 83 79 80 80 91 91 90 74 74 77
74 74 75 75 74 75 74 71 72 75 75 75 76 80 84 82 84 86 86 87 90 88 87 85 82 79 94 94 92 82 78 76

GFSFLT1_sfc_rhum_075.txt.gz
RH
57 84 94 94 96 96 97 98 98 99 99 98 98 99 99 99 98 94 96 93 88 84 81 85 82 71 86 86 82 81 81 80
68 85 93 97 98 97 97 98 98 98 99 98 97 99 99 99 99 96 96 94 87 76 78 82 73 71 75 82 85 76 89 86
84 92 96 97 96 96 96 97 97 95 90 92 93 95 98 98 98 98 97 94 90 74 75 74 68 67 85 87 81 81 76 77
83 89 96 96 97 96 94 96 98 92 87 95 97 98 99 99 99 99 96 92 90 83 74 71 72 69 80 80 78 70 75 85
69 82 97 94 93 92 90 90 97 97 94 90 92 89 96 89 94 98 98 93 90 84 84 84 81 81 84 85 79 71 71 71
62 76 87 94 87 87 86 86 85 91 97 90 92 90 90 94 94 97 98 98 95 94 89 94 92 94 88 88 89 82 82 79
54 64 82 93 83 85 88 89 89 93 96 96 94 89 90 98 95 96 96 99 98 97 96 92 92 97 95 92 92 89 86 82
58 72 91 90 88 87 89 92 91 90 97 97 96 94 90 90 95 94 95 95 95 96 95 96 91 88 94 96 94 95 94 94
57 68 86 93 87 85 87 92 90 87 90 91 96 94 86 85 87 89 91 89 86 86 89 91 89 90 93 95 96 95 95 97
58 67 83 93 88 86 86 86 93 86 84 87 95 92 89 86 92 90 86 86 82 81 84 87 88 86 90 93 93 91 91 91
62 66 81 88 91 85 83 81 91 81 81 79 85 93 91 93 95 96 91 88 83 89 85 84 90 87 86 87 86 83 88 87
62 66 80 93 95 86 84 83 88 82 83 81 84 95 91 85 89 92 94 94 93 91 83 81 82 85 81 81 78 79 87 83
70 76 84 88 93 94 91 90 86 82 92 82 79 94 86 85 85 88 88 90 92 87 88 81 79 81 80 81 81 77 84 80
84 85 88 88 90 92 96 95 93 86 85 84 86 95 93 88 83 83 83 84 84 83 83 84 83 80 82 85 80 78 77 79
83 86 86 88 90 89 88 90 92 95 94 87 87 96 94 92 88 85 83 82 81 77 76 76 78 79 78 77 78 82 80 79
83 85 85 84 88 86 83 84 80 81 92 97 96 96 95 94 94 91 87 86 83 81 79 78 76 74 73 77 77 80 82 84
78 78 77 78 78 79 77 77 78 78 81 79 78 80 83 91 92 92 92 91 86 85 85 84 83 78 84 89 83 75 74 79
76 79 79 78 78 75 76 73 71 74 76 76 78 80 83 81 80 84 91 91 88 89 88 85 86 84 95 93 93 79 76 76
77 78 79 79 76 75 74 71 73 74 74 75 75 78 78 80 82 86 87 90 94 93 90 88 88 85 99 98 98 87 83 80